Temperature
22 23 25 25 25 25 24 22 22 22 22 22 22 22 23 23 24 23 23 23 23 23 23 22 22 22 22 22 22 21 21 21 21 20 20 20 19 19 19 19 18 18 18 18
22 24 24 25 25 25 25 24 23 23 22 22 23 23 23 23 23 23 22 22 23 23 22 22 22 22 22 21 21 21 21 21 20 20 20 19 19 19 19 18 18 18 18 18
20 22 23 23 24 25 24 24 23 22 22 22 21 21 22 23 23 22 22 22 22 22 22 22 22 21 21 21 21 21 21 20 20 20 19 19 19 18 18 18 18 18 17 17
19 21 22 22 23 25 24 23 23 22 22 22 22 22 23 23 23 23 23 22 22 22 22 22 22 21 21 21 21 21 20 20 20 19 19 19 18 18 18 18 17 17 17 17
18 19 21 22 24 24 23 22 22 22 22 22 22 22 22 23 23 23 23 23 22 22 22 22 21 21 21 21 20 20 20 20 19 19 19 18 18 18 18 17 17 17 16 16
18 20 20 21 23 25 23 21 22 22 21 21 21 19 20 22 23 23 22 22 22 22 22 21 21 21 20 20 20 20 20 19 19 19 18 18 18 18 17 17 17 16 16 16
18 19 19 21 23 23 22 20 22 22 22 22 20 21 22 22 22 22 22 22 22 21 21 21 21 20 20 20 19 19 19 19 19 18 18 18 18 17 17 17 16 16 16 15
17 18 19 20 21 20 19 21 21 21 22 22 22 22 22 22 22 22 21 21 21 21 21 20 20 20 20 19 19 19 18 18 18 18 18 18 17 17 17 16 16 16 15 15
17 17 18 20 20 21 21 21 21 21 21 22 22 21 21 21 21 21 21 21 20 20 20 20 19 19 19 19 18 18 18 18 17 17 17 17 17 16 16 16 15 15 15 15
16 17 18 19 20 20 20 21 21 21 21 22 21 21 21 20 20 20 20 20 20 19 19 19 19 19 18 18 18 17 17 17 17 17 16 16 16 16 16 15 15 15 14 14
15 16 17 18 19 19 20 20 21 21 21 21 21 21 20 20 20 19 19 19 19 19 19 18 18 18 18 18 18 17 17 17 16 16 16 16 16 16 15 15 15 15 14 14
15 16 15 17 18 19 19 19 19 19 20 20 20 20 19 19 19 19 19 19 18 18 18 18 18 17 17 17 17 17 17 16 16 16 15 15 15 15 15 14 14 14 14 14
17 18 18 18 18 18 19 19 19 19 19 19 19 19 19 18 18 18 18 18 18 18 18 17 17 17 17 16 16 16 16 16 16 15 15 15 15 14 14 14 14 14 14 14
18 18 17 17 17 18 18 18 18 18 18 18 18 18 18 18 17 17 17 17 17 17 17 17 17 16 16 16 16 16 16 15 15 15 15 15 14 14 14 14 13 13 13 13
17 17 17 17 17 17 17 17 17 17 17 17 17 17 17 17 17 16 16 16 16 16 16 16 16 16 16 15 15 15 15 15 15 15 14 14 14 14 14 13 13 13 13 13
17 17 17 17 17 17 17 17 17 16 16 16 16 16 16 16 16 16 16 16 16 16 15 15 15 15 15 15 15 15 15 14 14 14 14 14 14 13 13 13 13 13 13 13
16 16 16 16 16 16 16 16 16 16 16 16 16 16 16 15 15 15 15 15 15 15 15 15 14 14 14 14 14 14 14 14 14 14 14 13 13 13 13 13 12 12 12 12
16 16 16 16 16 16 16 16 16 16 15 15 15 15 15 15 15 15 14 14 14 14 14 14 14 14 14 14 14 14 13 13 13 13 13 13 13 13 12 12 12 12 12 12
15 15 15 15 16 15 15 15 15 15 15 15 15 15 15 15 15 14 14 14 14 14 14 14 13 13 13 13 13 13 13 13 13 13 13 13 12 12 12 12 12 12 12 11
15 15 15 15 15 15 15 15 15 14 14 15 15 14 14 14 14 14 14 13 13 13 13 13 13 13 13 13 13 13 13 13 13 13 13 12 12 12 12 12 12 11 11 11
15 15 15 15 14 14 14 14 14 14 14 14 14 14 14 14 14 14 13 13 13 13 13 13 13 13 13 13 13 13 13 12 12 12 12 12 12 12 12 11 11 11 11 11
14 14 14 14 14 14 14 14 14 14 14 14 14 14 14 13 13 13 13 13 12 12 12 12 12 12 12 12 12 12 12 12 12 12 12 11 11 11 11 11 11 11 11 11
14 14 14 13 13 13 13 13 13 13 13 13 13 13 13 13 13 13 12 12 12 12 12 12 12 12 12 12 12 12 12 12 12 11 11 11 11 11 11 11 11 11 10 10
13 13 13 13 13 13 13 13 13 13 13 13 13 13 13 13 12 12 12 12 12 12 12 12 12 12 12 12 12 12 11 11 11 11 11 11 11 11 10 10 10 10 10 10
13 13 13 13 13 13 13 13 13 13 12 12 12 12 12 12 12 12 12 12 12 12 12 12 12 11 11 11 11 11 11 11 11 11 10 10 10 10 10 10 10 10 10 9
12 12 12 12 12 13 13 13 12 12 12 12 12 12 12 12 12 12 12 12 12 12 12 11 11 11 11 11 11 11 11 10 10 10 10 10 10 10 10 10 9 9 9 9
12 12 12 12 12 12 12 12 12 12 12 12 12 12 12 12 12 12 12 11 11 11 11 11 11 11 11 11 10 10 10 10 10 10 10 10 10 10 9 9 9 9 9 9
Wind_Speed
5 5 2 3 4 3 4 7 8 8 8 8 7 7 6 6 5 6 6 7 8 8 7 6 6 5 6 6 6 7 7 7 7 6 5 5 5 5 4 4 4 4 3 3
3 2 2 4 5 3 3 4 5 6 6 6 5 4 4 5 7 7 6 6 5 6 6 6 6 6 6 6 6 6 7 7 6 5 5 5 5 4 4 4 3 3 3 3
3 4 4 3 4 2 2 3 6 7 7 5 4 5 6 6 8 8 8 7 6 6 6 6 5 6 6 6 6 6 6 5 5 5 5 5 5 4 4 4 3 3 2 3
1 2 4 7 3 2 2 2 3 5 5 8 8 6 4 6 8 7 7 7 6 6 5 4 4 4 5 5 5 6 5 5 5 5 5 5 5 5 4 4 4 3 3 3
3 3 5 6 3 1 3 2 2 3 5 6 6 5 2 2 5 7 7 6 5 5 5 4 3 3 4 4 4 5 5 5 5 5 5 5 5 5 4 4 3 3 3 3
4 4 6 6 5 1 5 1 3 2 5 6 6 4 3 3 3 5 5 5 5 5 4 4 3 3 5 4 3 4 5 5 5 5 6 6 5 4 3 4 4 4 3 3
4 5 6 6 5 3 3 6 3 1 4 5 4 5 5 4 4 5 6 5 5 5 3 3 3 4 4 4 4 5 4 3 3 4 4 4 3 3 4 4 4 3 3 2
3 4 6 6 3 3 6 3 1 2 1 4 3 3 3 4 4 6 6 5 6 5 3 2 3 5 4 4 4 3 3 3 3 3 3 3 3 2 3 4 4 3 3 1
6 6 4 2 1 2 3 2 1 2 0 4 5 3 3 3 3 4 6 5 5 5 4 2 3 4 4 4 4 5 4 3 3 3 2 2 3 2 2 2 3 3 3 2
0 2 1 2 3 3 2 1 1 2 2 3 4 5 5 4 3 3 4 4 5 5 4 3 2 3 4 4 5 6 5 4 3 3 2 1 1 1 2 2 3 3 3 3
1 2 3 4 4 4 4 4 3 2 2 3 5 5 6 5 4 3 3 3 4 5 5 4 3 2 2 3 5 6 5 4 4 4 3 2 2 1 2 2 4 4 4 4
4 5 3 4 5 4 4 4 3 2 2 3 4 4 5 6 4 4 3 3 4 4 4 3 3 2 2 3 5 6 5 4 4 4 4 3 3 1 3 0 2 3 4 4
4 4 4 4 3 3 2 3 4 2 2 3 3 4 4 4 3 4 4 3 4 4 4 3 3 2 1 2 4 5 5 4 4 4 4 4 3 3 1 3 4 1 2 3
2 0 1 2 2 4 3 3 3 4 3 3 3 3 4 3 3 3 3 3 4 3 3 3 4 3 2 2 3 4 4 5 5 4 4 4 3 3 3 3 1 1 2 0
2 1 3 2 2 2 2 2 3 3 3 4 3 3 3 4 3 2 2 2 3 3 2 3 3 3 3 3 3 4 3 3 3 3 3 4 3 3 3 3 2 2 1 2
2 1 1 0 1 1 2 2 1 0 1 2 2 2 2 3 3 2 1 2 3 3 2 3 3 3 3 4 4 3 2 3 3 3 3 3 3 3 3 3 3 2 2 2
2 2 2 2 1 1 1 0 2 1 1 2 2 2 4 4 3 2 1 1 1 1 2 3 3 2 3 3 3 3 2 3 4 2 2 3 3 3 4 4 3 3 3 3
3 3 3 3 2 1 0 1 0 1 1 2 2 3 4 3 3 2 1 1 1 1 1 1 2 3 3 3 3 2 3 3 3 3 3 2 3 3 3 3 3 3 2 2
2 2 2 1 2 2 1 1 1 1 1 1 2 3 3 3 3 3 2 2 1 1 2 2 3 3 3 2 2 2 2 3 2 2 2 3 2 2 2 2 3 3 3 2
2 3 2 1 1 1 2 1 1 1 0 1 2 2 2 1 2 2 2 1 2 3 2 2 2 2 2 2 3 2 2 3 2 2 2 2 2 2 2 2 3 3 3 3
2 2 2 2 1 1 1 1 2 1 1 2 2 2 2 1 1 2 2 1 2 1 2 2 1 1 2 2 3 2 2 2 2 2 1 2 2 2 1 2 2 3 3 3
1 2 2 2 1 0 1 1 1 2 1 1 1 2 2 2 1 1 1 2 1 1 1 1 1 2 3 3 2 2 2 2 2 2 2 2 2 2 2 2 3 3 3 3
1 1 1 1 1 1 0 0 1 2 2 2 2 3 2 2 2 2 1 1 1 2 2 1 3 4 4 3 2 2 2 2 2 2 2 2 2 2 2 2 2 2 2 2
0 0 1 1 1 1 0 1 1 1 2 2 2 2 2 2 1 1 2 2 3 3 2 2 4 5 4 2 2 2 1 1 1 1 1 1 1 2 3 3 2 2 2 3
1 1 1 1 1 1 2 1 1 1 2 1 0 1 1 2 2 1 1 2 4 4 2 2 4 4 3 2 2 2 1 1 2 1 1 1 2 2 2 2 2 2 2 2
1 1 2 2 2 2 2 2 2 1 1 1 0 0 0 0 1 1 1 2 3 3 2 1 2 2 2 2 2 2 2 2 2 1 2 1 2 2 2 3 3 3 3 2
1 0 0 1 1 1 1 2 2 2 2 2 1 1 0 1 1 1 2 2 2 1 1 1 2 2 2 2 2 2 2 2 2 2 2 2 2 2 2 3 3 2 2 2
Wind_Direction
218 234 238 275 260 234 201 194 185 211 198 217 213 195 179 159 143 141 149 152 161 167 170 168 166 167 166 170 172 174 174 186 201 205 200 198 201 204 202 197 198 197 181 183
322 334 352 306 282 237 217 206 186 182 216 224 204 164 151 148 147 149 156 162 162 161 163 169 175 175 170 171 173 169 176 191 197 193 192 194 199 198 192 194 192 176 180 182
284 317 16 298 254 223 218 215 178 195 215 188 161 159 172 169 160 165 169 167 163 161 164 171 177 179 183 183 172 169 179 186 185 188 193 200 197 190 195 194 179 174 191 186
158 26 245 245 259 156 145 266 200 185 190 174 172 179 179 169 161 162 163 164 166 161 160 168 173 175 183 178 169 171 177 182 184 185 195 198 191 192 196 186 180 188 197 199
132 192 267 289 291 139 139 309 310 167 164 157 144 91 46 188 166 168 168 164 168 163 155 152 155 168 160 164 169 173 181 185 189 189 194 197 196 198 191 175 182 187 185 185
148 173 226 248 281 248 103 317 291 165 165 152 126 130 230 225 156 148 141 140 139 135 131 139 159 141 135 148 159 184 191 190 186 186 189 194 195 194 185 174 185 182 188 192
178 204 252 267 289 44 135 223 281 154 166 153 159 189 198 176 147 150 137 133 128 128 137 163 162 135 138 151 181 196 181 164 158 167 174 176 175 174 167 170 175 179 178 180
171 199 248 305 29 148 202 205 118 56 146 142 134 128 138 143 144 145 137 139 137 134 143 154 146 141 150 176 193 168 149 150 153 157 156 146 147 166 169 165 168 177 173 172
190 212 242 311 154 207 163 134 107 77 99 128 126 136 136 138 141 143 141 147 147 143 145 152 159 158 174 201 175 153 144 150 150 138 133 138 150 161 158 163 171 179 178 186
321 274 323 24 33 16 36 92 130 101 115 133 147 156 152 151 150 143 148 150 152 146 149 166 175 176 189 189 164 152 155 159 149 141 138 119 125 152 162 175 181 181 181 189
304 291 355 356 352 340 347 14 33 40 75 142 149 160 163 161 165 159 154 161 155 160 168 176 170 182 194 166 147 152 160 162 156 153 156 146 122 137 181 204 195 188 193 190
232 241 211 259 291 325 359 15 28 28 48 122 143 154 155 162 167 158 156 159 150 158 166 175 167 171 175 152 148 149 156 162 165 161 158 154 143 59 10 286 193 189 198 194
211 242 229 239 290 327 338 347 3 24 115 122 128 131 138 148 158 152 151 156 162 165 170 169 156 156 170 156 146 153 161 167 165 163 163 164 161 154 122 7 26 29 224 203
246 70 328 298 294 320 326 343 8 33 53 107 123 119 121 121 128 142 160 175 166 151 156 164 160 173 186 161 152 161 165 166 168 172 168 171 173 169 160 151 137 344 348 331
284 231 227 266 315 326 322 12 52 45 47 64 93 107 116 121 125 149 173 162 137 123 136 156 164 187 184 168 165 167 167 169 168 166 169 172 173 170 165 166 179 203 294 335
230 299 189 160 287 334 10 32 79 87 109 89 74 89 103 112 108 96 117 136 133 143 164 173 189 203 181 167 168 171 169 171 164 159 161 164 171 173 179 183 190 197 212 232
185 260 215 190 210 316 13 165 184 181 144 130 125 116 105 102 95 88 59 61 124 159 176 175 192 187 159 152 155 168 167 168 167 161 171 177 178 181 184 187 196 205 220 220
187 198 195 180 174 183 337 20 140 152 166 180 150 130 126 135 158 184 182 99 67 40 309 218 187 166 159 162 162 163 159 156 160 168 173 177 179 176 179 188 197 203 219 210
176 168 196 193 172 172 193 216 206 184 201 156 137 151 157 167 177 184 166 150 166 244 267 242 183 165 167 172 156 147 148 139 141 152 156 168 174 161 160 187 193 190 188 187
184 185 181 169 132 163 198 203 165 126 176 138 128 127 134 174 180 177 169 203 233 224 211 189 166 162 170 161 139 133 137 139 144 142 138 144 158 164 173 189 190 188 192 195
179 175 154 139 145 232 209 183 167 191 183 144 148 160 170 189 181 168 156 253 289 234 169 153 154 169 158 144 131 134 137 133 128 126 147 160 167 176 191 202 196 194 200 201
186 176 149 132 124 257 247 179 174 181 163 150 162 155 144 141 135 116 184 215 232 173 148 144 153 153 146 130 117 121 137 150 146 142 151 163 167 181 202 199 192 188 187 188
62 100 128 148 185 203 257 225 182 168 161 175 187 180 176 179 173 169 226 256 166 159 147 152 150 141 133 118 121 130 134 136 141 160 178 184 190 189 186 186 181 171 159 154
91 218 229 213 113 88 314 277 218 168 157 173 190 187 178 170 211 228 190 169 160 151 136 154 153 151 143 132 124 124 131 133 142 156 164 161 162 153 150 147 141 134 139 145
249 238 222 162 170 203 197 174 108 100 93 84 138 186 199 184 186 210 192 172 164 154 152 168 164 159 148 135 141 148 161 169 170 160 162 158 143 143 142 142 146 147 149 159
231 251 252 223 204 195 184 157 154 165 149 141 240 266 231 157 152 159 149 161 156 155 162 165 164 164 154 150 156 167 183 191 192 192 193 189 164 163 167 170 163 162 163 168
229 288 331 339 318 248 180 166 170 183 182 178 193 238 189 161 141 140 140 149 152 155 166 175 175 164 160 167 179 202 208 205 197 196 196 191 177 175 177 171 166 162 159 164
Height
1493 1488 1486 1488 1487 1487 1494 1499 1507 1503 1499 1492 1487 1487 1486 1487 1488 1491 1493 1494 1496 1498 1500 1501 1503 1505 1506 1507 1509 1511 1512 1513 1514 1515 1515 1516 1516 1517 1517 1517 1518 1518 1517 1517
1493 1485 1485 1487 1483 1483 1485 1487 1491 1493 1494 1484 1483 1484 1485 1486 1487 1489 1491 1493 1494 1496 1498 1499 1501 1502 1503 1504 1506 1508 1509 1510 1511 1511 1512 1512 1512 1513 1513 1514 1514 1514 1514 1514
1504 1491 1489 1496 1485 1483 1484 1482 1485 1492 1488 1482 1483 1483 1483 1484 1486 1487 1489 1490 1492 1493 1495 1497 1498 1499 1500 1500 1502 1504 1505 1506 1507 1507 1508 1508 1509 1509 1509 1510 1510 1510 1510 1511
1505 1500 1509 1494 1476 1475 1479 1479 1478 1478 1478 1478 1479 1480 1482 1483 1484 1486 1487 1489 1490 1492 1493 1495 1496 1497 1497 1498 1499 1500 1501 1502 1503 1504 1504 1504 1505 1505 1505 1506 1506 1506 1507 1507
1510 1511 1502 1486 1476 1475 1479 1483 1477 1477 1476 1477 1478 1480 1483 1483 1483 1484 1485 1487 1488 1489 1491 1492 1493 1494 1495 1495 1496 1497 1498 1498 1500 1500 1501 1501 1501 1501 1502 1502 1503 1503 1504 1504
1505 1507 1507 1489 1474 1470 1475 1487 1477 1476 1475 1476 1477 1485 1484 1482 1482 1483 1484 1485 1486 1487 1488 1489 1490 1491 1491 1492 1493 1493 1494 1495 1496 1497 1497 1497 1497 1498 1499 1499 1499 1500 1501 1501
1501 1503 1495 1479 1472 1471 1489 1489 1476 1474 1474 1475 1476 1478 1479 1480 1481 1482 1482 1484 1485 1486 1487 1487 1488 1489 1488 1489 1490 1491 1491 1492 1493 1493 1494 1494 1494 1495 1495 1496 1496 1497 1497 1498
1500 1503 1498 1476 1473 1478 1480 1475 1475 1474 1473 1473 1474 1476 1477 1478 1479 1480 1481 1482 1483 1483 1484 1485 1486 1486 1486 1486 1487 1487 1488 1489 1490 1491 1491 1492 1492 1492 1492 1492 1493 1493 1494 1494
1490 1491 1480 1476 1475 1475 1473 1473 1474 1474 1474 1473 1473 1475 1476 1477 1478 1478 1479 1480 1481 1481 1482 1483 1483 1483 1483 1483 1484 1484 1486 1487 1487 1488 1489 1490 1490 1490 1489 1490 1490 1490 1491 1491
1484 1480 1478 1476 1475 1474 1473 1472 1472 1472 1472 1472 1472 1472 1474 1475 1476 1477 1477 1478 1478 1479 1479 1480 1480 1481 1480 1480 1480 1481 1482 1483 1484 1486 1486 1487 1487 1488 1488 1488 1488 1488 1488 1489
1483 1479 1477 1475 1475 1474 1473 1471 1470 1470 1470 1470 1469 1470 1471 1473 1474 1474 1475 1475 1476 1476 1476 1477 1477 1478 1478 1477 1477 1478 1479 1480 1482 1483 1484 1485 1486 1486 1486 1486 1486 1486 1487 1487
1484 1479 1478 1476 1475 1474 1472 1471 1470 1469 1468 1468 1467 1467 1469 1470 1471 1472 1473 1473 1474 1474 1474 1474 1475 1475 1475 1475 1475 1476 1477 1478 1480 1481 1482 1483 1483 1484 1484 1485 1485 1485 1486 1487
1476 1475 1475 1474 1473 1472 1471 1470 1468 1468 1468 1466 1466 1467 1467 1468 1469 1470 1471 1471 1471 1471 1472 1472 1473 1473 1473 1474 1474 1475 1475 1476 1478 1479 1480 1481 1482 1482 1482 1483 1483 1484 1484 1485
1474 1474 1473 1472 1471 1471 1470 1469 1468 1468 1467 1466 1465 1466 1466 1467 1468 1469 1469 1470 1470 1470 1470 1470 1471 1471 1472 1473 1473 1474 1474 1475 1476 1477 1478 1479 1480 1481 1481 1481 1481 1481 1483 1483
1472 1472 1472 1470 1470 1470 1469 1468 1468 1467 1466 1466 1466 1465 1465 1465 1466 1467 1468 1469 1468 1468 1468 1469 1469 1470 1471 1472 1472 1473 1473 1474 1475 1475 1476 1478 1479 1480 1480 1480 1481 1481 1481 1482
1469 1469 1468 1468 1468 1468 1467 1466 1466 1466 1465 1464 1464 1464 1465 1465 1466 1466 1467 1467 1467 1466 1467 1467 1468 1469 1469 1470 1471 1471 1472 1473 1473 1474 1475 1476 1477 1478 1478 1479 1479 1480 1480 1480
1466 1466 1466 1465 1465 1465 1464 1465 1465 1465 1464 1464 1464 1463 1464 1465 1465 1465 1465 1466 1466 1466 1466 1466 1466 1467 1468 1468 1468 1469 1469 1471 1472 1473 1474 1474 1475 1476 1476 1477 1477 1477 1478 1478
1463 1464 1464 1463 1463 1463 1464 1464 1464 1464 1464 1463 1463 1463 1463 1463 1463 1463 1464 1464 1464 1464 1464 1465 1465 1465 1466 1466 1466 1467 1467 1468 1469 1470 1471 1472 1473 1473 1474 1474 1475 1475 1475 1475
1459 1461 1462 1461 1462 1462 1463 1463 1463 1463 1463 1462 1461 1461 1461 1461 1462 1462 1462 1462 1462 1461 1462 1463 1463 1463 1464 1464 1465 1465 1466 1465 1467 1468 1469 1470 1470 1471 1471 1472 1472 1472 1473 1473
1458 1459 1460 1460 1460 1461 1462 1462 1462 1461 1461 1460 1460 1459 1459 1460 1460 1460 1460 1460 1460 1459 1460 1461 1461 1461 1462 1462 1463 1464 1464 1464 1465 1466 1466 1467 1468 1468 1469 1469 1469 1470 1470 1470
1456 1457 1457 1458 1459 1459 1460 1460 1460 1460 1459 1459 1458 1458 1458 1458 1458 1458 1458 1458 1458 1458 1459 1459 1459 1460 1460 1461 1462 1462 1462 1462 1463 1463 1464 1465 1465 1466 1466 1466 1466 1466 1467 1467
1454 1455 1455 1456 1457 1457 1458 1458 1458 1457 1457 1457 1457 1457 1456 1456 1456 1456 1456 1456 1456 1457 1457 1458 1458 1459 1459 1459 1460 1460 1460 1461 1461 1462 1462 1463 1463 1463 1463 1463 1463 1463 1463 1464
1453 1453 1454 1455 1455 1455 1456 1456 1456 1456 1456 1455 1456 1455 1455 1454 1454 1454 1454 1455 1455 1455 1456 1456 1457 1457 1458 1458 1458 1459 1459 1459 1460 1460 1461 1461 1461 1460 1461 1461 1461 1461 1461 1462
1453 1453 1453 1453 1454 1454 1454 1454 1454 1454 1454 1454 1455 1454 1454 1454 1454 1454 1454 1454 1454 1454 1454 1455 1455 1456 1456 1456 1457 1457 1458 1458 1459 1459 1459 1459 1459 1459 1459 1459 1459 1460 1460 1460
1451 1451 1452 1452 1453 1453 1453 1453 1453 1453 1453 1453 1453 1454 1454 1453 1453 1453 1453 1453 1453 1453 1453 1454 1454 1454 1455 1455 1456 1456 1456 1457 1458 1458 1458 1457 1457 1457 1457 1457 1458 1458 1458 1458
1450 1450 1450 1451 1451 1451 1451 1451 1451 1451 1451 1452 1452 1452 1453 1453 1453 1453 1453 1453 1452 1452 1452 1453 1453 1453 1453 1454 1454 1455 1455 1455 1456 1456 1456 1456 1456 1456 1456 1456 1456 1456 1457 1457
1449 1449 1449 1449 1450 1450 1450 1451 1451 1451 1451 1451 1451 1451 1452 1452 1452 1452 1452 1452 1452 1452 1452 1452 1452 1452 1452 1453 1453 1454 1454 1454 1454 1454 1454 1455 1455 1455 1454 1454 1454 1454 1454 1454